Regional Weather Roundup
Issued by NWS Albany, NY

Home | Current Version | Previous Version | Graphics & Text | Print | Product List | Glossary On
Versions: 1 2 3 4 5 6 7 8 9 10 11 12 13 14 15 16 17 18 19 20 21 22 23 24 25 26 27 28 29 30 31 32 33 34 35 36 37 38 39 40 41 42 43 44 45 46 47 48 49 50
359
ASUS41 KALY 281510
RWRALY

NEW YORK STATE HOURLY WEATHER ROUNDUP
NATIONAL WEATHER SERVICE ALBANY NY
1100 AM EDT THU JUL 28 2016

NOTE: "FAIR" INDICATES FEW OR NO CLOUDS BELOW 12,000 FEET WITH NO
SIGNIFICANT WEATHER AND/OR NO OBSTRUCTIONS TO VISIBILITY.

NYZ032-033-038>043-046>054-057>066-NYZ062>081-082-084-281600-
EAST


CITY           SKY/WX    TMP DP  RH WIND       PRES   REMARKS
ALBANY         CLOUDY    83  64  52 S7        29.92F
GLENS FALLS    CLOUDY    80  67  64 S9        29.90F
POUGHKEEPSIE   MOSUNNY   85  64  49 S5        29.91F
NEWBURGH       MOSUNNY   84  66  54 CALM      29.95F
MONTGOMERY     MOSUNNY   84  69  60 SW3       29.93F
WHITE PLAINS   MOSUNNY   87  64  46 S5        29.93S
ISLIP          PTSUNNY   90  61  37 VRB3      29.91S HX  90
NEW YORK CITY  PTSUNNY   91  64  40 VRB6      29.90F HX  92
CENTRAL PARK   MOSUNNY   87  62  43 N5        29.94F
$$

NYZ005>009-017-018-044>046-055-056-281600-
CENTRAL


CITY           SKY/WX    TMP DP  RH WIND       PRES   REMARKS
FULTON         CLOUDY    83  66  56 VRB5      29.92F
SYRACUSE       PTSUNNY   80  65  59 W5        29.91F
ROME           CLOUDY    79  66  64 NW6       29.93F
ELMIRA         CLOUDY    78  61  55 VRB3      29.94F
BINGHAMTON     PTSUNNY   76  64  66 S5        29.98S
MONTICELLO     PTSUNNY   79  64  61 SW5       30.00R
$$

NYZ026>034-041>043-087-281600-
NORTH


CITY           SKY/WX    TMP DP  RH WIND       PRES   REMARKS
WATERTOWN      MOSUNNY   79  67  66 W7        29.91S
FORT DRUM      NOT AVBL
MASSENA        CLOUDY    76  66  71 CALM      29.92R
SARANAC LAKE   RAIN      69  65  86 CALM      29.96R FOG
PLATTSBURGH    PTSUNNY   76  67  73 SE3       29.89S
$$

NYZ001>004-010>016-019>021-085-281600-
WEST


CITY           SKY/WX    TMP DP  RH WIND       PRES   REMARKS
NIAGARA FALLS  PTSUNNY   83  65  54 SE5       29.92F
BUFFALO        PTSUNNY   80  65  59 CALM      29.92F
DUNKIRK        CLOUDY    79  63  57 N9        29.93S
JAMESTOWN      PTSUNNY   77  61  57 E5        29.97F
WELLSVILLE     CLOUDY    79  60  52 CALM      30.01F
ROCHESTER      CLOUDY    82  62  50 CALM      29.93F
PENN YAN       PTSUNNY   80  63  55 CALM      29.95F
$$

             KEY
       WCI = WIND CHILL INDEX
       VSB = VISIBILITY
       HX  = HEAT INDEX
$$




USA.gov is the U.S. government's official web portal to all federal, state and local government web resources and services.